Aurora, CO

1:22 AM MST on November 22, 2017 (GMT -0700)
Buckley Air Force Base

Weather History for KBKF - March, 2013

Change the Weather History Date:

Tuesday, March 19, 2013

  Actual Average Record
Temperature  
Mean Temperature 38 °F -  
Max Temperature 51 °F 52 °F 78 °F (2017)
Min Temperature 24 °F 29 °F 19 °F (2014)
Degree Days  
Heating Degree Days 28    
Moisture  
Dew Point 8 °F    
Average Humidity 33    
Maximum Humidity 69    
Minimum Humidity 10    
Precipitation  
Precipitation 0.00 in - - ()
Sea Level Pressure  
Sea Level Pressure 30.08 in    
Wind  
Wind Speed 8 mph (NNE)    
Max Wind Speed 25 mph    
Max Gust Speed 34 mph    
Visibility 10 miles    
Events      
Averages and records for this station are not official NWS values.
T = Trace of Precipitation, MM = Missing Value Source: NWS Daily Summary

Daily Weather History Graph

Daily Weather History Graph

Search for Another Location

Airport or City:

Trip Planner

Search our weather history database for the weather conditions in past years. The results will help you decide how hot, cold, wet, or windy it might be!

Date:

Astronomy

Mar. 19, 2013 Rise Set
Actual Time 7:03 AM MDT 7:10 PM MDT
Civil Twilight 6:36 AM MDT 7:37 PM MDT
Nautical Twilight 6:05 AM MDT 8:08 PM MDT
Astronomical Twilight 5:33 AM MDT 8:40 PM MDT
Moon 11:56 AM MDT (3/19) 1:58 AM MDT (3/19)
Length of Visible Light 13h 00m
Length of Day
12h 06m
Waxing Crescent, 50% of the Moon is Illuminated
Mar 19
Waxing Crescent
Mar 27
Full
Apr 2
Last Quarter
Apr 10
New
Apr 18
First Quarter

Hourly Weather History & Observations

Time (MDT) Temp. Windchill Dew Point Humidity Pressure Visibility Wind Dir Wind Speed Gust Speed Precip Events Conditions
12:58 AM 35.1 °F - 17.6 °F 49% 29.89 in 10.0 mi Variable 1.2 mph - N/A   Mostly Cloudy
1:58 AM 36.3 °F 31.6 °F 16.3 °F 44% 29.90 in 10.0 mi North 5.8 mph - N/A   Clear
2:58 AM 37.6 °F - 14.9 °F 40% 29.89 in 10.0 mi North 1.2 mph - N/A   Clear
3:58 AM 35.6 °F 30.7 °F 14.2 °F 42% 29.89 in 10.0 mi NW 5.8 mph - N/A   Clear
4:58 AM 39.0 °F 30.3 °F 6.8 °F 26% 29.88 in 10.0 mi NW 16.1 mph 26.5 mph N/A   Clear
5:58 AM 37.6 °F 28.4 °F 4.3 °F 25% 29.93 in 10.0 mi NNW 16.1 mph - N/A   Clear
6:58 AM 37.0 °F 25.4 °F -0.4 °F 21% 29.97 in 10.0 mi NW 25.3 mph 34.5 mph N/A   Clear
7:55 AM 32.0 °F 21.6 °F 6.8 °F 35% 30.04 in 70.0 mi North 15.0 mph 26.5 mph N/A   Mostly Cloudy
8:55 AM 32.0 °F 23.0 °F 8.6 °F 38% 30.10 in 70.0 mi NE 11.5 mph 17.3 mph N/A   Mostly Cloudy
9:55 AM 32.0 °F 21.6 °F 15.8 °F 51% 30.13 in 70.0 mi NE 15.0 mph - N/A   Mostly Cloudy
10:55 AM 37.4 °F 27.8 °F 15.8 °F 41% 30.10 in 70.0 mi NE 17.3 mph 23.0 mph N/A   Mostly Cloudy
11:55 AM 41.0 °F 35.2 °F 12.2 °F 31% 30.11 in 70.0 mi ENE 9.2 mph - N/A   Mostly Cloudy
12:55 PM 42.8 °F 41.1 °F 6.8 °F 23% 30.09 in 70.0 mi NNE 3.5 mph - N/A   Scattered Clouds
1:55 PM 44.6 °F 40.2 °F 6.8 °F 21% 30.07 in 70.0 mi ENE 8.1 mph - N/A   Partly Cloudy
2:55 PM 48.2 °F - -2.2 °F 12% 30.04 in 70.0 mi NW 3.5 mph - N/A   Partly Cloudy
3:55 PM 50.0 °F - -2.2 °F 12% 30.03 in 70.0 mi West 5.8 mph - N/A   Partly Cloudy
4:55 PM 51.8 °F - -4.0 °F 10% 30.03 in 70.0 mi NNE 6.9 mph - N/A   Scattered Clouds
5:55 PM 50.0 °F - -2.2 °F 12% 30.07 in 70.0 mi NNE 8.1 mph - N/A   Scattered Clouds
6:55 PM 44.6 °F 40.2 °F 1.4 °F 17% 30.11 in 70.0 mi NE 8.1 mph - N/A   Mostly Cloudy
7:55 PM 39.2 °F 31.2 °F 5.0 °F 24% 30.20 in 25.0 mi ENE 13.8 mph 24.2 mph N/A   Mostly Cloudy
8:55 PM 33.8 °F 24.8 °F 10.4 °F 38% 30.26 in 25.0 mi East 12.7 mph - N/A   Mostly Cloudy
9:55 PM 28.4 °F 19.1 °F 14.0 °F 55% 30.33 in 25.0 mi ENE 10.4 mph - N/A   Mostly Cloudy
10:55 PM 24.8 °F 19.1 °F 14.0 °F 64% 30.38 in 25.0 mi North 4.6 mph - N/A   Mostly Cloudy
11:55 PM 24.8 °F 16.9 °F 15.8 °F 69% 30.37 in 25.0 mi NNW 6.9 mph - N/A   Scattered Clouds